Location: Three Oaks Observatory
(31.1535°N, 83.5955°W)
Time: 02:16:08
(UTC-05:00)

Hubble Space Telescope - Visible Passes

Search period start: 24 January 2019 00:00
Search period end: 03 February 2019 00:00
Orbit: 537 x 540 km, 28.5° (Epoch: 23 January)

Date Brightness Start Highest point End Pass type
(mag) Time Alt. Az. Time Alt. Az. Time Alt. Az.
24 Jan 4.0 04:39:04 11° E 04:39:04 11° E 04:39:14 10° E visible
24 Jan 1.6 06:14:24 26° WSW 06:16:10 40° SSW 06:20:04 10° ESE visible
25 Jan 1.8 06:04:34 29° SW 06:05:41 34° SSW 06:09:27 10° SE visible
26 Jan 1.9 05:54:45 29° SSW 05:55:11 29° SSW 05:58:47 10° SE visible
27 Jan 2.3 05:44:58 24° SSW 05:44:58 24° SSW 05:48:03 10° SE visible
28 Jan 2.8 05:35:13 18° S 05:35:13 18° S 05:37:13 10° SSE visible
29 Jan 3.3 05:25:30 13° S 05:25:30 13° S 05:26:13 10° SSE visible
02 Feb 3.2 20:04:14 10° SSW 20:05:06 13° S 20:05:06 13° S visible
